Location: Newark
(34.0131°N, 4.3314°W)
Time: 02:05:39
(UTC+00:00)

ISS - Visible Passes

Search period start: 18 October 2019 00:00
Search period end: 28 October 2019 00:00
Orbit: 411 x 421 km, 51.6° (Epoch: 17 October)

Date Brightness Start Highest point End Pass type
(mag) Time Alt. Az. Time Alt. Az. Time Alt. Az.
21 Oct -0.4 05:34:53 10° SSE 05:36:07 12° SE 05:37:21 10° ESE visible
23 Oct -2.3 05:32:15 10° SSW 05:35:24 38° SE 05:38:34 10° ENE visible
24 Oct -1.2 04:45:00 13° S 04:46:57 20° SE 04:49:30 10° E visible
25 Oct -3.7 05:32:31 17° WSW 05:34:54 57° NW 05:38:13 10° NE visible
26 Oct -3.3 04:46:47 59° E 04:46:47 59° E 04:49:41 10° NE visible
27 Oct -0.2 04:00:51 10° ENE 04:00:51 10° ENE 04:00:55 10° ENE visible
27 Oct -2.2 05:33:47 19° NW 05:34:36 21° NNW 05:37:14 10° NNE visible
